SR9WXZ Weather Reports


time (UTC)temp
F
wind
direction
speed
knots
gust
knots
rain 1hr
in
rain 24hr
in
rain mn
in
humidity
%
barometer
mb
20260905195637 60 200 1.7 3.5 0.00 0.00 0.00 100
20260905194637 63 118 0.9 0.9 0.00 0.00 0.00 100
20260905194137 63 147 1.7 1.7 0.00 0.00 0.00 100
20260905193637 63 264 1.7 1.7 0.00 0.00 0.00 100
20260905193136 64 245 1.7 2.6 0.00 0.00 0.00 100
20260905192636 63 182 1.7 1.7 0.00 0.00 0.00 100
20260905192136 64 173 2.6 3.5 0.00 0.00 0.00 100
20260905191635 64 174 1.7 1.7 0.00 0.00 0.00 100
20260905191135 64 165 2.6 4.3 0.00 0.00 0.00 100
20260905190635 64 188 1.7 2.6 0.00 0.00 0.00 100
20260905190135 65 180 3.5 7.0 0.00 0.00 0.00 100
20260905185634 64 177 3.5 5.2 0.00 0.00 0.00 100
20260905185135 65 169 5.2 7.0 0.00 0.00 0.00 100
20260905184634 65 167 4.3 7.0 0.00 0.00 0.00 100
20260905184134 65 172 5.2 8.7 0.00 0.00 0.00 100
20260905183634 65 172 4.3 5.2 0.00 0.00 0.00 100
20260905183134 65 174 3.5 6.1 0.00 0.00 0.00 100
20260905182634 65 167 5.2 9.6 0.00 0.00 0.00 100
20260905182133 65 174 3.5 7.8 0.00 0.00 0.00 100
20260905181633 65 168 3.5 6.1 0.00 0.00 0.00 100
20260905181133 65 160 2.6 4.3 0.00 0.00 0.00 100
20260905180630 65 175 3.5 5.2 0.00 0.00 0.00 100
20260905180130 66 158 4.3 7.8 0.00 0.00 0.00 100
20260905175629 66 180 3.5 6.1 0.00 0.00 0.00 100
20260905175129 66 157 2.6 4.3 0.00 0.00 0.00 100
20260905174629 66 176 2.6 3.5 0.00 0.00 0.00 100
20260905174129 66 169 2.6 3.5 0.00 0.00 0.00 100
20260905173629 66 168 2.6 3.5 0.00 0.00 0.00 100
20260905173128 66 177 3.5 5.2 0.00 0.00 0.00 100
20260905172628 66 176 3.5 4.3 0.00 0.00 0.00 100
20260905172118 67 179 4.3 7.0 0.00 0.00 0.00 100
20260905171618 67 184 4.3 8.7 0.00 0.00 0.00 100
20260905171117 67 185 3.5 8.7 0.00 0.00 0.00 100
20260905170617 67 177 4.3 6.1 0.00 0.00 0.00 100
20260905170117 68 174 5.2 8.7 0.00 0.00 0.00 100
20260905165617 68 178 6.1 7.8 0.00 0.00 0.00 100
20260905165117 68 177 6.1 7.8 0.00 0.00 0.00 100
20260905164617 68 177 7.8 11.3 0.00 0.00 0.00 100
20260905164116 68 189 4.3 7.8 0.00 0.00 0.00 100
20260905163616 69 181 6.1 11.3 0.00 0.00 0.00 100
20260905163116 69 159 9.6 14.8 0.00 0.00 0.00 100
20260905162616 69 150 6.1 8.7 0.00 0.00 0.00 100
20260905161613 69 155 6.1 13.0 0.00 0.00 0.00 100
20260905160612 70 161 6.1 9.6 0.00 0.00 0.00 100
20260905160112 70 151 7.8 12.2 0.00 0.00 0.00 100
20260905155612 70 149 7.0 12.2 0.00 0.00 0.00 100
20260905155112 70 152 6.1 10.4 0.00 0.00 0.00 100
20260905154611 70 149 7.0 13.0 0.00 0.00 0.00 100
20260905154111 70 154 6.1 9.6 0.00 0.00 0.00 100
20260905153611 71 157 4.3 7.8 0.00 0.00 0.00 100
20260905153111 70 150 7.0 9.6 0.00 0.00 0.00 100
20260905152610 70 166 5.2 8.7 0.00 0.00 0.00 100
20260905152110 71 160 4.3 9.6 0.00 0.00 0.00 100
20260905151610 71 156 5.2 7.0 0.00 0.00 0.00 100
20260905150610 71 161 3.5 6.1 0.00 0.00 0.00 100
20260905150109 71 175 4.3 6.1 0.00 0.00 0.00 100
20260905145851 71 162 4.3 7.8 0.00 0.00 0.00 100
20260905145351 71 150 5.2 8.7 0.00 0.00 0.00 100
20260905144851 70 150 6.1 8.7 0.00 0.00 0.00 100
20260905144351 70 165 5.2 9.6 0.00 0.00 0.00 100
20260905143850 70 142 8.7 12.2 0.00 0.00 0.00 100
20260905143350 70 142 7.8 13.0 0.00 0.00 0.00 100
20260905142850 70 139 9.6 12.2 0.00 0.00 0.00 100
20260905142350 71 139 9.6 14.8 0.00 0.00 0.00 100
20260905141850 71 160 5.2 11.3 0.00 0.00 0.00 100
20260905141350 70 160 4.3 7.0 0.00 0.00 0.00 100
20260905140850 70 160 5.2 8.7 0.00 0.00 0.00 100
20260905134839 70 146 12.2 18.2 0.00 0.00 0.00 100
20260905134339 70 139 11.3 14.8 0.00 0.00 0.00 100
20260905133838 70 137 7.8 12.2 0.00 0.00 0.00 100
20260905133338 70 145 7.8 12.2 0.00 0.00 0.00 100
20260905132838 70 147 6.1 9.6 0.00 0.00 0.00 100
20260905132338 69 144 7.0 10.4 0.00 0.00 0.00 100
20260905131838 69 142 11.3 19.1 0.00 0.00 0.00 100
20260905131337 70 157 6.1 11.3 0.00 0.00 0.00 100
20260905130837 68 147 7.8 10.4 0.00 0.00 0.00 100
20260905130337 68 142 9.6 13.9 0.00 0.00 0.00 100
20260905125837 68 143 6.1 9.6 0.00 0.00 0.00 100
20260905125337 69 145 10.4 17.4 0.00 0.00 0.00 100
20260905124837 70 151 7.0 9.6 0.00 0.00 0.00 100
20260905124336 69 148 10.4 15.6 0.00 0.00 0.00 100
20260905123836 68 151 7.8 13.9 0.00 0.00 0.00 100
20260905123336 68 142 7.8 11.3 0.00 0.00 0.00 100
20260905122836 68 145 10.4 13.9 0.00 0.00 0.00 100
20260905122336 69 148 8.7 13.9 0.00 0.00 0.00 100
20260905121835 69 142 11.3 19.1 0.00 0.00 0.00 100
20260905121335 70 147 7.8 10.4 0.00 0.00 0.00 100
20260905120835 69 146 9.6 15.6 0.00 0.00 0.00 100
20260905120335 70 152 8.7 16.5 0.00 0.00 0.00 100
20260905115835 69 151 7.8 13.9 0.00 0.00 0.00 100
20260905115334 69 143 7.0 10.4 0.00 0.00 0.00 100
20260905114834 69 146 8.7 10.4 0.00 0.00 0.00 100
20260905114334 68 140 11.3 15.6 0.00 0.00 0.00 100
20260905113834 68 145 7.8 11.3 0.00 0.00 0.00 100
20260905113334 68 145 8.7 12.2 0.00 0.00 0.00 100
20260905112821 68 154 7.8 12.2 0.00 0.00 0.00 100
20260905112321 68 148 10.4 14.8 0.00 0.00 0.00 100
20260905111820 67 150 10.4 14.8 0.00 0.00 0.00 100
20260905111320 68 144 11.3 16.5 0.00 0.00 0.00 100
20260905110820 68 149 8.7 20.0 0.00 0.00 0.00 100
20260905110320 68 152 7.8 11.3 0.00 0.00 0.00 100
20260905105820 68 162 7.8 11.3 0.00 0.00 0.00 100
20260905105320 67 159 8.7 13.9 0.00 0.00 0.00 100
20260905104819 67 147 10.4 14.8 0.00 0.00 0.00 100
20260905104319 67 151 8.7 13.9 0.00 0.00 0.00 100
20260905103819 67 145 11.3 15.6 0.00 0.00 0.00 100
20260905103319 68 151 8.7 12.2 0.00 0.00 0.00 100
20260905102819 67 142 7.0 12.2 0.00 0.00 0.00 100
20260905102319 67 143 9.6 15.6 0.00 0.00 0.00 100
20260905101819 66 147 9.6 16.5 0.00 0.00 0.00 100
20260905101318 66 142 8.7 14.8 0.00 0.00 0.00 100
20260905100818 66 139 10.4 15.6 0.00 0.00 0.00 100
20260905100318 66 138 9.6 13.9 0.00 0.00 0.00 100
20260905095818 66 143 9.6 14.8 0.00 0.00 0.00 100
20260905095317 66 131 8.7 12.2 0.00 0.00 0.00 100
20260905091816 65 139 5.2 10.4 0.00 0.00 0.00 100
20260905091314 64 147 4.3 7.0 0.00 0.00 0.00 100
20260905090814 63 152 6.1 8.7 0.00 0.00 0.00 100
20260905090314 63 144 7.0 10.4 0.00 0.00 0.00 100
20260905085814 63 173 5.2 8.7 0.00 0.00 0.00 100
20260905085306 63 173 5.2 8.7 0.00 0.00 0.00 100
20260905084803 62 181 3.5 6.1 0.00 0.00 0.00 100
20260905084303 62 178 7.0 11.3 0.00 0.00 0.00 100
20260905083303 62 177 3.5 4.3 0.00 0.00 0.00 100
20260905082803 61 179 5.2 7.8 0.00 0.00 0.00 100
20260905082306 61 181 4.3 7.0 0.00 0.00 0.00 100
20260905081302 60 175 2.6 4.3 0.00 0.00 0.00 100
20260905080302 60 172 3.5 6.1 0.00 0.00 0.00 100
20260905075802 60 202 2.6 4.3 0.00 0.00 0.00 100
20260905075305 60 185 2.6 4.3 0.00 0.00 0.00 100
20260905074801 60 182 3.5 3.5 0.00 0.00 0.00 100
20260905074301 60 178 4.3 7.0 0.00 0.00 0.00 100
20260905073801 60 171 3.5 5.2 0.00 0.00 0.00 100
20260905073301 60 175 3.5 5.2 0.00 0.00 0.00 100
20260905072300 61 182 3.5 5.2 0.00 0.00 0.00 100
20260905071800 60 159 7.0 10.4 0.00 0.00 0.00 100
20260905071300 60 173 3.5 5.2 0.00 0.00 0.00 100
20260905070800 61 179 4.3 6.1 0.00 0.00 0.00 100
20260905070300 60 180 4.3 7.0 0.00 0.00 0.00 100
20260905065759 61 177 4.3 7.8 0.00 0.00 0.00 100
20260905065259 60 178 2.6 5.2 0.00 0.00 0.00 100
20260905064759 60 161 3.5 7.0 0.00 0.00 0.00 100
20260905063759 61 156 2.6 3.5 0.00 0.00 0.00 100
20260905063259 61 171 0.9 0.9 0.00 0.00 0.00 100
20260905062758 61 161 1.7 2.6 0.00 0.00 0.00 100
20260905062258 61 157 1.7 1.7 0.00 0.00 0.00 100
20260905061245 60 179 1.7 1.7 0.00 0.00 0.00 100
20260905060745 60 179 1.7 1.7 0.00 0.00 0.00 100
20260905060245 60 179 1.7 2.6 0.00 0.00 0.00 100
20260905055745 60 191 1.7 1.7 0.00 0.00 0.00 100
20260905055244 59 207 2.6 3.5 0.00 0.00 0.00 100
20260905054744 60 201 2.6 3.5 0.00 0.00 0.00 100
20260905053744 60 196 1.7 1.7 0.00 0.00 0.00 100
20260905053243 60 173 1.7 1.7 0.00 0.00 0.00 100
20260905052743 60 173 1.7 2.6 0.00 0.00 0.00 100
20260905052243 60 306 1.7 1.7 0.00 0.00 0.00 100
20260905051743 61 112 1.7 3.5 0.00 0.00 0.00 100
20260905051242 61 58 1.7 1.7 0.00 0.00 0.00 100
20260905050742 60 108 1.7 1.7 0.00 0.00 0.00 100
20260905050242 60 208 2.6 2.6 0.00 0.00 0.00 100
20260905045742 60 208 2.6 3.5 0.00 0.00 0.00 100
20260905045241 61 242 1.7 1.7 0.00 0.00 0.00 100
20260905044741 60 231 1.7 2.6 0.00 0.00 0.00 100
20260905044241 61 219 1.7 1.7 0.00 0.00 0.00 100
20260905043741 62 219 1.7 1.7 0.00 0.00 0.00 100
20260905043241 60 219 1.7 1.7 0.00 0.00 0.00 100
20260905042741 60 202 2.6 3.5 0.00 0.00 0.00 100
20260905042240 60 214 1.7 2.6 0.00 0.00 0.00 100
20260905041740 61 190 1.7 2.6 0.00 0.00 0.00 100
20260905041240 61 196 1.7 1.7 0.00 0.00 0.00 100
20260905040740 62 196 1.7 1.7 0.00 0.00 0.00 100
20260905040240 62 229 1.7 2.6 0.00 0.00 0.00 100
20260905035740 62 244 0.9 0.9 0.00 0.00 0.00 100
20260905035239 62 245 0.9 0.9 0.00 0.00 0.00 100
20260905034739 62 239 1.7 1.7 0.00 0.00 0.00 100
20260905034229 62 241 1.7 1.7 0.00 0.00 0.00 100
20260905033729 63 267 2.6 3.5 0.00 0.00 0.00 100
20260905033228 63 307 1.7 1.7 0.00 0.00 0.00 100
20260905032228 62 214 1.7 1.7 0.00 0.00 0.00 100
20260905031227 62 212 1.7 1.7 0.00 0.00 0.00 100
20260905030727 63 209 1.7 1.7 0.00 0.00 0.00 100
20260905030227 63 247 1.7 2.6 0.00 0.00 0.00 100
20260905025727 62 246 1.7 3.5 0.00 0.00 0.00 100
20260905025226 63 228 2.6 3.5 0.00 0.00 0.00 100
20260905024726 64 136 2.6 6.1 0.00 0.00 0.00 100
20260905024226 62 179 1.7 1.7 0.00 0.00 0.00 100
20260905023726 62 179 1.7 1.7 0.00 0.00 0.00 100
20260905023226 63 179 1.7 1.7 0.00 0.00 0.00 100
20260905022726 62 182 1.7 1.7 0.00 0.00 0.00 100
20260905022225 63 179 1.7 1.7 0.00 0.00 0.00 100
20260905021725 62 179 1.7 1.7 0.00 0.00 0.00 100
20260905021225 63 180 1.7 1.7 0.00 0.00 0.00 100
20260905020225 63 179 1.7 1.7 0.00 0.00 0.00 100
20260905015724 64 179 1.7 1.7 0.00 0.00 0.00 100
20260905015224 64 183 1.7 1.7 0.00 0.00 0.00 100
20260905014724 64 167 1.7 1.7 0.00 0.00 0.00 100
20260905014224 64 167 1.7 1.7 0.00 0.00 0.00 100
20260905013724 64 161 2.6 2.6 0.00 0.00 0.00 100
20260905013224 64 152 2.6 3.5 0.00 0.00 0.00 100
20260905012723 65 232 1.7 1.7 0.00 0.00 0.00 100
20260905011723 65 247 2.6 4.3 0.00 0.00 0.00 100
20260905011223 65 236 1.7 2.6 0.00 0.00 0.00 100
20260905005708 65 205 2.6 4.3 0.00 0.00 0.00 100
20260905005208 66 202 4.3 6.1 0.00 0.00 0.00 100
20260905004708 66 205 5.2 8.7 0.00 0.00 0.00 100
20260905004208 66 204 4.3 7.0 0.00 0.00 0.00 100
20260905003707 67 196 7.0 10.4 0.00 0.00 0.00 100
20260905003207 67 222 5.2 9.6 0.00 0.00 0.00 100
20260905002707 68 197 5.2 8.7 0.00 0.00 0.00 100
20260905002207 68 213 6.1 9.6 0.00 0.00 0.00 100
20260905001707 68 204 5.2 8.7 0.00 0.00 0.00 100
20260905001206 68 202 7.0 9.6 0.00 0.00 0.00 100
20260905000706 68 210 6.1 8.7 0.00 0.00 0.00 100
20260905000206 68 198 4.3 7.0 0.00 0.00 0.00 100
20260904235706 69 172 3.5 5.2 0.00 0.00 0.00 100
20260904235206 69 193 4.3 8.7 0.00 0.00 0.00 100
20260904234706 69 208 5.2 7.8 0.00 0.00 0.00 100
20260904234205 69 216 4.3 7.0 0.00 0.00 0.00 100
20260904233704 70 229 7.0 12.2 0.00 0.00 0.00 100
20260904233201 70 221 9.6 14.8 0.00 0.00 0.00 100
20260904232659 71 224 11.3 19.1 0.00 0.00 0.00 100
20260904232154 71 227 13.0 35.6 0.00 0.00 0.00 100
20260904231648 72 218 8.7 13.9 0.00 0.00 0.00 100
20260904231146 73 210 8.7 14.8 0.00 0.00 0.00 100
20260904230643 74 222 8.7 11.3 0.00 0.00 0.00 100
20260904230143 73 198 6.1 12.2 0.00 0.00 0.00 100
20260904225641 72 115 1.7 1.7 0.00 0.00 0.00 100
20260904225141 73 116 1.7 1.7 0.00 0.00 0.00 100
20260904224641 75 224 1.7 2.6 0.00 0.00 0.00 100
20260904224141 76 168 3.5 9.6 0.00 0.00 0.00 100
20260904223640 76 173 2.6 3.5 0.00 0.00 0.00 100
20260904223130 76 166 3.5 5.2 0.00 0.00 0.00 100
20260904222630 76 163 3.5 5.2 0.00 0.00 0.00 100
20260904222130 76 158 5.2 8.7 0.00 0.00 0.00 100
20260904221630 76 172 2.6 3.5 0.00 0.00 0.00 100
20260904221129 76 163 6.1 18.2 0.00 0.00 0.00 100
20260904220627 76 165 4.3 8.7 0.00 0.00 0.00 100
20260904220127 76 160 4.3 6.1 0.00 0.00 0.00 100
20260904215627 77 156 7.8 12.2 0.00 0.00 0.00 100
20260904215127 76 156 6.1 7.8 0.00 0.00 0.00 100
20260904214627 77 162 8.7 13.0 0.00 0.00 0.00 100
20260904214126 76 164 5.2 7.8 0.00 0.00 0.00 100
20260904213626 76 157 7.0 9.6 0.00 0.00 0.00 100
20260904213126 76 168 4.3 7.0 0.00 0.00 0.00 100
20260904212626 76 171 3.5 5.2 0.00 0.00 0.00 100
20260904212126 76 171 3.5 5.2 0.00 0.00 0.00 100
20260904211625 76 163 3.5 7.8 0.00 0.00 0.00 100
20260904211125 77 166 4.3 7.8 0.00 0.00 0.00 100
20260904210625 77 157 7.0 11.3 0.00 0.00 0.00 100
20260904210125 77 156 7.8 12.2 0.00 0.00 0.00 100
20260904205625 77 157 8.7 14.8 0.00 0.00 0.00 100
20260904205125 77 159 8.7 11.3 0.00 0.00 0.00 100
20260904204124 77 158 9.6 14.8 0.00 0.00 0.00 100
20260904203624 76 161 4.3 9.6 0.00 0.00 0.00 100
20260904203124 76 158 4.3 7.0 0.00 0.00 0.00 100
20260904202624 77 170 6.1 9.6 0.00 0.00 0.00 100
20260904202124 76 172 4.3 7.8 0.00 0.00 0.00 100
20260904201123 72 45 3.5 3.5 0.00 0.00 0.00 100
20260904200121 70 97 1.7 2.6 0.00 0.00 0.00 100